Cloud_Cover
5 74 92 96 99 100 100 100 100 93 93 100 41 100 100 100 49 22 5 52 63 5 5 5 2 0 0 0 0 5 0 22 94 100 100 100 100 100 100 100 100 100 100 100
25 78 6 9 73 97 90 100 100 100 100 100 100 81 100 75 41 17 5 6 41 9 8 69 5 0 0 0 0 0 5 0 67 100 100 100 99 100 100 100 100 100 100 100
5 4 3 30 69 100 100 100 100 100 100 100 100 100 100 100 100 64 5 5 5 5 5 4 2 0 0 0 0 0 0 1 0 92 74 95 100 100 100 100 100 100 100 100
2 4 5 5 73 100 99 100 100 100 100 100 100 100 100 100 100 100 100 92 5 4 4 0 0 0 0 0 0 0 0 7 1 22 98 100 100 100 100 100 100 100 100 100
4 5 3 15 89 100 94 100 98 100 100 100 100 100 100 100 100 100 100 39 6 5 67 5 54 76 6 0 0 0 0 18 5 79 100 100 100 100 100 100 100 100 100 100
5 5 5 6 21 100 33 37 75 90 100 100 100 100 100 100 100 100 99 98 68 14 30 5 15 100 98 0 0 0 38 100 100 100 100 100 100 100 100 100 100 100 100 100
41 21 4 4 63 31 95 6 100 100 100 100 100 100 100 100 100 100 100 87 100 86 6 1 2 1 0 0 0 86 100 100 100 100 100 100 100 100 100 100 100 100 100 100
99 8 5 5 96 100 99 100 100 100 100 100 100 100 100 100 100 100 100 100 100 100 100 98 93 91 55 99 100 100 100 100 100 100 100 100 100 100 100 100 100 100 100 100
98 27 98 21 100 63 63 99 100 100 100 100 100 100 99 100 100 100 100 100 100 100 100 100 100 100 100 100 100 100 100 100 100 100 100 100 100 100 100 100 100 100 100 100
97 87 54 61 89 32 97 58 99 100 100 100 100 100 100 100 100 100 100 100 100 100 100 100 100 100 100 100 100 100 100 100 100 100 100 100 100 100 100 100 100 100 100 100
100 96 79 70 100 98 63 98 94 88 87 100 100 100 100 100 100 100 100 100 100 100 100 100 100 100 100 100 100 100 100 100 100 100 100 100 100 100 100 100 100 100 100 100
100 92 99 99 100 77 90 100 98 100 99 100 100 100 100 100 100 100 100 100 100 100 100 100 100 100 100 100 100 100 100 100 100 100 100 100 100 100 100 100 100 100 100 100
33 38 37 23 100 100 92 92 45 13 70 99 100 100 100 100 100 100 100 100 100 100 100 100 100 100 100 100 100 100 100 100 100 100 100 100 100 100 100 100 100 100 100 100
22 21 40 74 100 100 100 100 55 77 68 100 99 100 100 100 100 100 100 100 100 100 100 100 100 100 100 100 100 100 100 100 100 100 100 100 100 100 100 100 100 100 100 100
34 6 31 99 42 100 100 90 82 98 100 100 100 100 100 100 100 100 100 100 100 100 100 100 100 100 100 100 100 100 100 100 100 100 100 100 100 100 100 100 100 100 100 100
21 49 9 100 92 45 100 94 7 99 100 100 100 100 100 100 100 100 100 100 100 100 100 100 100 100 100 100 100 100 100 100 100 100 100 100 100 100 100 100 100 100 100 100
84 75 23 2 100 100 84 100 63 64 100 100 100 100 100 100 100 100 100 100 100 100 100 100 100 100 100 100 100 100 100 100 100 100 100 100 100 100 100 100 100 100 100 100
94 56 5 4 54 60 13 100 100 62 97 100 100 100 100 100 100 100 100 100 100 100 100 100 100 100 100 94 99 100 99 98 64 100 100 100 100 100 100 100 100 100 100 100
84 39 11 5 13 100 66 14 100 100 72 80 87 100 100 100 100 100 100 100 100 100 100 100 100 100 100 100 99 15 99 100 100 100 100 100 100 100 100 100 100 100 100 100
79 5 29 5 12 4 99 38 5 12 100 87 13 100 100 100 100 100 100 100 100 94 100 100 79 54 72 95 96 92 27 100 100 100 100 100 100 100 100 100 100 100 100 100
32 5 21 5 5 4 5 73 5 13 11 100 100 88 93 52 62 70 79 45 50 7 5 8 11 60 11 30 57 6 35 83 100 100 100 100 100 100 100 100 100 100 100 100
2 5 5 5 5 1 1 0 31 88 55 5 59 100 100 93 88 36 22 16 8 5 22 66 9 20 8 55 32 18 5 22 30 100 100 100 100 100 100 100 100 100 100 100
10 1 5 2 5 5 2 5 5 4 13 5 5 5 5 11 54 99 100 98 98 98 100 100 79 35 59 27 7 49 99 100 100 100 100 100 100 100 100 100 100 100 100 100
4 0 0 0 5 5 5 5 5 4 0 1 5 9 13 5 5 4 5 9 62 72 81 43 41 41 50 23 5 4 4 5 5 5 21 51 96 100 100 100 100 100 100 100
2 3 0 0 4 3 3 1 3 4 0 0 0 0 2 4 5 5 5 20 27 13 7 5 4 4 3 4 4 3 5 5 5 14 17 25 69 93 100 100 100 100 100 100
3 0 0 0 0 0 0 0 0 0 0 0 0 0 0 0 0 0 0 1 4 5 5 6 8 6 12 11 10 15 10 5 5 5 5 5 5 7 11 14 12 17 23 98